Temp
-4 -4 -5 -5 -7 -7 -6 -6 -6 -6 -6 -7 -7 -7 -6 -6 -6 -6 -5 -6 -6 -5 -5 -5 -5 -6 -5 -6 -6 -6 -6 -6 -6 -6 -6 -6 -6 -7 -7 -7 -8 -9 -9 -8
-4 -5 -5 -3 -6 -6 -6 -6 -6 -6 -6 -7 -7 -7 -6 -5 -5 -5 -6 -5 -6 -5 -5 -5 -5 -5 -6 -5 -6 -6 -6 -6 -6 -6 -6 -6 -6 -7 -7 -7 -7 -8 -7 -6
-4 -4 -5 -3 -6 -6 -6 -6 -6 -6 -6 -6 -7 -7 -7 -6 -5 -5 -5 -6 -6 -6 -6 -5 -5 -5 -5 -6 -6 -6 -6 -6 -6 -5 -5 -5 -6 -6 -6 -7 -7 -7 -6 -6
-4 -4 -3 -6 -6 -6 -5 -6 -6 -6 -6 -6 -6 -6 -6 -6 -6 -5 -5 -5 -6 -6 -6 -6 -6 -5 -5 -5 -6 -6 -6 -6 -6 -6 -5 -5 -6 -6 -6 -6 -6 -6 -7 -7
-4 -4 -3 -6 -5 -5 -5 -6 -6 -6 -6 -6 -6 -6 -6 -6 -6 -6 -6 -4 -4 -6 -7 -6 -6 -6 -6 -5 -5 -5 -6 -6 -6 -6 -5 -5 -5 -6 -6 -6 -6 -6 -7 -7
-4 -4 -4 -6 -5 -6 -7 -7 -6 -6 -6 -5 -6 -6 -6 -6 -6 -6 -6 -5 -5 -4 -4 -6 -7 -6 -6 -6 -5 -5 -5 -5 -6 -5 -6 -5 -6 -6 -6 -6 -6 -6 -7 -8
-4 -4 -4 -4 -4 -5 -7 -7 -5 -5 -5 -5 -5 -6 -6 -6 -6 -6 -6 -5 -6 -6 -5 -5 -6 -6 -5 -5 -6 -5 -5 -5 -5 -5 -6 -6 -6 -6 -6 -7 -7 -6 -6 -7
-4 -4 -3 -4 -4 -4 -5 -5 -5 -6 -6 -6 -5 -5 -6 -6 -6 -6 -6 -6 -6 -6 -5 -5 -5 -6 -6 -5 -5 -5 -5 -5 -5 -6 -6 -8 -8 -7 -7 -8 -8 -8 -8 -8
-4 -4 -5 -5 -4 -5 -6 -5 -5 -6 -6 -5 -6 -5 -5 -5 -5 -6 -6 -6 -7 -7 -6 -5 -5 -5 -6 -6 -7 -6 -5 -7 -6 -6 -7 -8 -8 -9 -9 -9 -9 -9 -9 -9
-5 -5 -6 -5 -5 -5 -5 -6 -6 -6 -5 -5 -5 -6 -6 -6 -5 -5 -5 -6 -6 -7 -6 -6 -5 -6 -7 -8 -8 -7 -7 -6 -8 -7 -8 -8 -8 -8 -8 -8 -9 -9 -9 -9
-6 -6 -6 -7 -5 -5 -5 -5 -6 -6 -5 -5 -6 -6 -6 -5 -5 -4 -6 -5 -6 -7 -6 -7 -8 -7 -7 -5 -5 -7 -7 -7 -8 -9 -9 -8 -8 -8 -7 -8 -8 -9 -9 -8
-6 -6 -6 -7 -7 -6 -6 -5 -6 -6 -5 -6 -6 -6 -6 -6 -6 -5 -6 -5 -6 -6 -7 -7 -7 -7 -5 -6 -6 -8 -7 -6 -7 -6 -7 -7 -8 -8 -8 -8 -8 -9 -10 -9
-6 -7 -6 -6 -7 -6 -7 -6 -7 -6 -6 -6 -6 -6 -6 -5 -5 -5 -5 -5 -5 -6 -6 -7 -7 -6 -7 -6 -6 -8 -6 -7 -8 -6 -7 -8 -9 -8 -8 -9 -9 -10 -10 -10
-7 -6 -7 -6 -7 -7 -7 -6 -6 -7 -6 -6 -6 -6 -7 -6 -5 -5 -5 -5 -6 -4 -5 -6 -7 -7 -6 -6 -7 -8 -7 -6 -6 -7 -8 -8 -9 -8 -9 -9 -10 -10 -10 -8
-8 -7 -7 -7 -6 -7 -7 -7 -7 -6 -6 -7 -7 -6 -7 -7 -6 -5 -6 -6 -6 -5 -6 -6 -6 -6 -7 -7 -6 -7 -7 -6 -7 -8 -8 -8 -9 -9 -10 -10 -9 -8 -8 -8
-8 -8 -8 -8 -7 -7 -7 -7 -8 -7 -7 -7 -7 -7 -7 -7 -7 -6 -6 -7 -6 -6 -6 -6 -7 -7 -7 -7 -7 -6 -6 -7 -8 -8 -8 -8 -8 -9 -9 -8 -8 -8 -8 -8
-8 -8 -8 -8 -7 -7 -7 -7 -7 -8 -8 -7 -7 -7 -7 -8 -8 -7 -7 -7 -6 -6 -6 -6 -6 -6 -7 -7 -6 -7 -7 -7 -7 -7 -8 -8 -8 -8 -8 -8 -8 -8 -8 -9
-8 -8 -8 -7 -8 -7 -5 -7 -7 -7 -8 -8 -7 -7 -7 -7 -8 -7 -6 -6 -7 -7 -7 -7 -7 -6 -6 -6 -6 -7 -7 -7 -8 -8 -8 -8 -8 -8 -8 -8 -8 -9 -9 -10
-9 -8 -8 -8 -8 -7 -7 -6 -7 -7 -8 -9 -8 -8 -7 -8 -8 -7 -7 -7 -7 -8 -7 -7 -7 -7 -7 -7 -7 -7 -7 -7 -7 -7 -8 -8 -8 -8 -8 -9 -9 -10 -11 -11
-9 -9 -9 -9 -9 -7 -5 -7 -7 -7 -8 -9 -8 -6 -6 -6 -7 -7 -7 -8 -8 -8 -8 -8 -7 -7 -7 -8 -7 -7 -8 -8 -8 -8 -8 -8 -9 -9 -9 -11 -11 -11 -11 -11
-9 -10 -9 -9 -8 -7 -7 -7 -8 -8 -8 -8 -8 -8 -8 -8 -8 -8 -8 -9 -9 -8 -8 -7 -7 -7 -8 -8 -8 -8 -8 -8 -8 -8 -9 -9 -10 -10 -11 -11 -11 -11 -12 -12
-9 -8 -9 -9 -9 -8 -8 -8 -8 -8 -8 -8 -8 -8 -8 -8 -8 -8 -9 -9 -9 -8 -8 -8 -8 -8 -8 -9 -9 -9 -9 -9 -9 -10 -10 -10 -11 -11 -11 -11 -12 -12 -12 -12
-9 -9 -8 -8 -8 -8 -8 -8 -8 -9 -9 -9 -8 -8 -8 -8 -9 -9 -9 -9 -8 -8 -9 -8 -9 -9 -9 -9 -9 -9 -9 -9 -10 -10 -11 -11 -11 -11 -11 -12 -12 -12 -12 -13
-10 -10 -10 -10 -9 -9 -9 -8 -9 -9 -9 -9 -9 -9 -8 -8 -9 -9 -9 -9 -9 -9 -9 -9 -9 -9 -9 -9 -9 -10 -10 -10 -10 -11 -11 -11 -12 -12 -12 -12 -12 -13 -13 -13
-10 -10 -10 -10 -10 -9 -10 -10 -10 -10 -9 -9 -9 -9 -9 -9 -9 -9 -10 -10 -10 -10 -10 -10 -10 -10 -10 -9 -10 -10 -10 -11 -11 -11 -12 -12 -13 -13 -13 -13 -13 -13 -14 -14
-11 -11 -11 -10 -9 -8 -10 -10 -10 -10 -10 -10 -9 -9 -9 -10 -9 -10 -10 -10 -10 -10 -10 -10 -10 -10 -10 -10 -11 -11 -11 -11 -12 -12 -13 -13 -13 -13 -13 -13 -14 -14 -14 -14
Height
5934 5937 5938 5938 5938 5942 5947 5953 5955 5955 5955 5950 5945 5945 5946 5948 5951 5950 5949 5947 5946 5943 5942 5940 5939 5937 5936 5937 5935 5933 5933 5932 5931 5931 5932 5933 5934 5930 5932 5932 5928 5929 5926 5934
5935 5936 5938 5937 5937 5943 5950 5952 5955 5956 5957 5952 5949 5948 5945 5945 5947 5951 5950 5947 5948 5947 5946 5943 5941 5940 5939 5938 5937 5936 5936 5935 5934 5933 5934 5935 5935 5931 5930 5928 5926 5927 5925 5931
5933 5935 5937 5937 5936 5945 5950 5953 5955 5956 5957 5954 5950 5948 5945 5946 5946 5948 5950 5948 5947 5947 5946 5945 5943 5942 5941 5940 5939 5938 5938 5937 5935 5935 5935 5936 5936 5933 5930 5927 5924 5928 5928 5930
5930 5932 5930 5937 5938 5944 5949 5953 5955 5953 5953 5955 5954 5950 5949 5948 5945 5946 5947 5950 5949 5947 5946 5945 5944 5943 5942 5941 5940 5939 5937 5935 5934 5933 5934 5935 5935 5934 5930 5927 5921 5925 5926 5925
5930 5929 5930 5934 5939 5944 5947 5947 5951 5953 5952 5953 5952 5953 5950 5948 5947 5946 5945 5947 5947 5948 5949 5945 5944 5943 5943 5942 5941 5939 5936 5935 5933 5932 5931 5932 5932 5932 5930 5926 5925 5920 5914 5913
5925 5928 5930 5932 5936 5940 5943 5945 5947 5947 5950 5948 5949 5950 5949 5948 5948 5945 5941 5940 5940 5944 5945 5946 5944 5943 5942 5942 5940 5938 5936 5934 5932 5931 5929 5929 5927 5925 5925 5926 5923 5921 5917 5913
5921 5924 5926 5929 5933 5935 5938 5940 5944 5947 5947 5948 5949 5948 5946 5947 5947 5945 5942 5940 5935 5934 5938 5944 5944 5942 5940 5939 5937 5935 5934 5933 5932 5928 5925 5924 5923 5921 5919 5917 5916 5912 5915 5913
5918 5921 5924 5926 5929 5933 5935 5937 5942 5942 5944 5946 5944 5946 5945 5945 5945 5943 5941 5938 5936 5933 5932 5933 5941 5942 5940 5937 5934 5934 5932 5929 5930 5927 5926 5920 5918 5918 5915 5911 5909 5909 5908 5909
5913 5916 5920 5923 5927 5929 5932 5934 5939 5938 5943 5945 5944 5945 5943 5943 5943 5943 5941 5941 5936 5931 5930 5930 5930 5938 5939 5935 5932 5928 5930 5925 5926 5925 5922 5917 5917 5916 5910 5907 5905 5904 5901 5901
5909 5912 5916 5919 5922 5925 5926 5934 5935 5935 5940 5942 5943 5941 5941 5941 5941 5941 5943 5942 5940 5932 5926 5927 5927 5929 5929 5929 5925 5923 5926 5924 5918 5918 5911 5910 5911 5910 5902 5905 5896 5893 5897 5897
5904 5906 5911 5917 5915 5921 5923 5925 5929 5934 5938 5939 5939 5937 5937 5937 5936 5938 5939 5940 5937 5933 5928 5923 5925 5919 5912 5918 5919 5919 5919 5914 5905 5901 5892 5900 5900 5897 5885 5892 5890 5885 5888 5890
5897 5900 5903 5907 5912 5916 5919 5922 5924 5926 5932 5934 5935 5934 5934 5934 5934 5933 5935 5935 5933 5930 5928 5926 5919 5915 5919 5917 5914 5913 5911 5905 5876 5863 5886 5892 5892 5895 5883 5889 5888 5878 5876 5876
5890 5892 5897 5902 5906 5910 5912 5918 5919 5922 5926 5927 5929 5927 5928 5928 5932 5932 5929 5932 5932 5926 5924 5923 5920 5914 5910 5912 5910 5916 5905 5891 5881 5866 5881 5885 5886 5892 5889 5882 5874 5863 5866 5866
5882 5886 5889 5894 5900 5907 5908 5912 5915 5916 5919 5923 5924 5921 5920 5920 5926 5928 5929 5926 5926 5921 5917 5917 5917 5916 5914 5914 5910 5904 5896 5884 5878 5881 5883 5879 5881 5881 5878 5866 5865 5866 5861 5855
5875 5877 5883 5890 5895 5899 5904 5905 5909 5910 5913 5917 5923 5919 5916 5912 5916 5925 5924 5922 5919 5919 5915 5908 5909 5909 5906 5903 5904 5897 5893 5888 5878 5875 5879 5880 5872 5865 5862 5862 5858 5849 5844 5840
5868 5869 5876 5878 5887 5892 5895 5897 5898 5904 5909 5912 5915 5913 5908 5907 5909 5913 5917 5914 5912 5913 5912 5907 5900 5898 5897 5892 5890 5890 5886 5876 5877 5881 5875 5870 5865 5861 5854 5848 5846 5842 5837 5832
5860 5862 5867 5870 5878 5883 5884 5889 5895 5898 5899 5905 5907 5903 5901 5902 5904 5908 5909 5907 5907 5908 5907 5904 5901 5894 5889 5883 5883 5878 5874 5872 5870 5866 5861 5858 5856 5852 5847 5843 5837 5833 5829 5822
5851 5854 5858 5863 5869 5869 5875 5882 5889 5890 5889 5895 5898 5896 5896 5897 5902 5903 5903 5905 5903 5903 5899 5898 5895 5890 5883 5878 5873 5870 5866 5863 5861 5858 5855 5850 5844 5840 5837 5834 5828 5822 5815 5808
5840 5846 5849 5853 5857 5863 5871 5877 5882 5885 5886 5882 5886 5887 5889 5892 5894 5896 5898 5898 5898 5896 5894 5893 5889 5884 5878 5876 5873 5868 5864 5859 5855 5851 5847 5844 5840 5835 5829 5823 5815 5807 5801 5794
5832 5837 5842 5845 5846 5850 5863 5870 5876 5876 5875 5873 5875 5881 5884 5887 5889 5890 5891 5891 5888 5888 5888 5886 5881 5877 5873 5869 5866 5862 5858 5854 5850 5845 5840 5835 5828 5822 5814 5807 5800 5793 5786 5780
5823 5826 5829 5835 5839 5844 5852 5859 5865 5864 5868 5868 5872 5874 5875 5878 5881 5883 5882 5882 5881 5880 5878 5875 5872 5868 5863 5859 5856 5852 5846 5843 5837 5831 5825 5818 5811 5805 5799 5792 5786 5780 5773 5767
5813 5817 5820 5827 5830 5835 5846 5849 5853 5856 5858 5859 5863 5866 5869 5872 5875 5875 5874 5873 5872 5868 5865 5861 5858 5854 5850 5846 5842 5837 5832 5826 5821 5816 5809 5804 5798 5791 5784 5778 5772 5766 5761 5756
5806 5809 5817 5821 5826 5831 5840 5844 5846 5846 5851 5851 5855 5859 5864 5865 5867 5867 5865 5864 5860 5856 5851 5848 5847 5843 5839 5833 5828 5824 5819 5813 5809 5803 5797 5791 5784 5778 5772 5766 5761 5756 5750 5745
5800 5805 5810 5816 5820 5826 5833 5836 5836 5839 5843 5846 5847 5849 5853 5857 5856 5854 5854 5851 5847 5843 5839 5837 5834 5832 5827 5823 5819 5812 5807 5802 5796 5790 5784 5778 5772 5766 5760 5755 5750 5744 5739 5733
5794 5800 5805 5809 5810 5816 5818 5823 5824 5828 5833 5837 5839 5841 5844 5845 5845 5843 5840 5838 5834 5832 5829 5825 5821 5818 5815 5811 5806 5801 5795 5790 5785 5778 5773 5767 5762 5757 5752 5745 5738 5732 5727 5723
5776 5782 5790 5794 5801 5804 5808 5813 5816 5821 5824 5827 5830 5832 5834 5834 5833 5830 5828 5826 5823 5820 5818 5816 5810 5806 5802 5799 5794 5789 5784 5779 5774 5768 5763 5758 5753 5748 5742 5735 5727 5719 5715 5710
Wind_Speed
17 20 21 23 19 13 10 8 8 10 10 10 18 19 23 12 14 22 12 12 13 11 11 12 13 14 14 14 14 13 12 12 11 11 11 12 13 11 11 13 11 8 6 20
15 22 18 15 15 5 18 9 17 15 19 10 13 15 23 20 24 23 21 10 9 11 13 12 11 10 10 11 11 11 11 11 10 9 10 10 11 9 11 12 11 17 16 22
13 16 15 11 11 21 22 18 11 17 15 9 10 18 24 28 28 25 19 9 7 7 11 12 11 9 9 8 6 6 7 8 9 9 9 10 9 8 9 12 15 13 16 15
16 17 14 10 11 30 28 18 9 17 19 11 3 19 23 26 30 29 18 12 5 7 11 10 10 12 10 8 8 7 8 9 9 10 10 9 9 8 10 13 18 16 15 15
14 13 12 10 15 32 30 12 13 16 11 11 13 17 16 25 27 28 28 18 10 6 7 14 12 13 14 13 9 7 8 9 10 10 10 10 10 9 9 11 11 16 22 21
21 17 16 18 16 30 18 13 21 24 26 19 15 17 15 22 19 26 26 26 30 15 9 6 19 17 16 16 17 15 13 10 10 10 10 11 11 11 13 18 20 17 16 18
24 23 19 18 19 26 22 18 14 5 6 6 1 8 20 20 22 23 27 35 36 38 27 8 8 19 18 19 21 21 21 20 18 16 13 15 17 17 16 18 22 23 22 24
23 24 22 22 19 19 19 17 16 10 6 17 6 16 26 25 27 28 33 35 38 38 36 34 16 18 22 23 20 22 21 22 22 22 22 20 20 20 20 18 21 23 25 24
27 23 20 19 18 21 17 17 18 19 12 8 14 18 21 24 26 28 32 34 36 38 35 34 34 19 20 27 27 22 22 24 26 26 25 25 26 23 21 17 16 19 20 26
26 21 16 21 20 21 22 11 27 23 18 9 14 19 19 23 26 32 16 18 21 29 37 36 36 36 32 39 32 31 26 39 30 31 30 23 31 31 27 21 16 12 26 37
27 28 20 12 23 20 27 27 29 23 17 8 12 21 24 29 33 31 26 23 26 25 30 36 36 40 29 30 29 36 48 34 34 32 35 28 24 38 33 28 24 12 29 40
34 35 30 27 25 26 20 28 26 28 28 21 19 23 27 28 32 35 30 26 29 29 26 27 31 32 36 37 42 45 26 41 42 41 49 21 33 18 10 33 39 50 39 47
35 40 36 32 22 28 31 22 22 25 32 30 27 30 31 32 27 27 34 33 30 35 26 26 31 35 38 42 45 40 48 65 40 22 38 31 32 38 43 43 35 30 52 50
27 43 43 39 30 30 33 23 25 33 33 34 29 32 29 32 32 34 29 34 22 22 27 30 32 35 39 40 40 37 36 37 24 30 38 39 41 42 45 47 48 50 51 56
31 38 43 40 37 25 25 27 27 25 27 24 25 26 33 41 42 28 29 30 23 31 35 40 37 36 40 41 39 39 38 37 32 34 40 42 44 46 49 50 52 56 60 61
37 38 41 41 41 38 33 24 30 25 20 31 29 35 43 42 42 38 28 28 31 30 36 37 42 42 39 42 41 41 42 40 35 39 42 44 46 48 51 54 56 58 60 64
45 42 41 46 41 42 46 39 25 33 33 22 39 41 44 34 32 33 33 37 38 40 36 36 38 44 44 45 44 43 41 41 42 43 45 47 50 52 54 56 58 60 63 64
39 44 46 42 47 52 46 43 30 17 27 25 36 44 46 47 44 44 48 44 42 40 40 38 41 42 44 46 47 46 46 45 45 46 49 52 54 56 57 58 61 62 61 61
41 43 43 44 41 44 45 44 32 22 26 26 42 47 49 43 42 43 41 40 40 44 41 41 40 42 44 43 43 45 46 47 49 50 51 52 54 55 57 59 59 58 59 56
35 38 41 46 47 43 34 46 34 32 39 39 36 37 39 38 38 40 45 39 43 45 42 43 43 42 41 41 42 42 44 46 47 49 50 52 53 55 57 56 56 56 54 52
38 44 42 38 35 38 38 36 43 43 45 44 45 44 44 46 47 49 43 42 44 43 45 43 42 41 40 41 42 43 45 46 47 49 50 53 55 56 55 55 52 51 47 44
39 36 37 30 32 40 37 35 42 46 47 46 46 48 50 47 48 48 47 43 48 49 47 45 44 42 42 43 44 45 45 47 50 51 52 55 54 54 51 50 48 43 41 42
48 46 39 32 31 29 30 42 42 42 41 44 47 45 39 46 42 43 43 48 49 48 47 47 45 43 44 46 46 46 48 50 51 54 53 53 49 48 47 43 41 41 43 43
58 46 42 35 34 37 39 39 41 44 44 49 50 49 45 40 37 42 49 50 48 49 49 48 47 46 47 46 46 49 50 52 54 51 50 47 47 44 41 40 42 44 45 46
36 44 42 38 41 41 46 46 46 49 50 50 46 44 45 42 43 46 47 49 51 49 48 48 48 48 47 47 48 52 53 49 49 45 44 43 41 39 40 43 45 47 48 48
37 48 46 43 40 46 47 43 46 49 47 45 45 44 46 46 49 47 51 52 50 49 48 48 49 48 48 50 52 48 47 44 42 42 40 38 38 40 42 45 47 49 49 49
Wind_Direction
150 156 150 125 94 76 97 124 264 265 310 254 295 322 341 29 14 12 10 46 49 53 52 53 53 46 44 49 45 49 47 44 43 39 39 36 36 17 7 359 310 257 271 331
153 158 159 145 98 80 136 146 197 253 288 241 277 297 310 340 2 8 7 350 16 34 36 39 47 48 45 44 43 35 29 24 24 23 23 24 29 4 353 317 329 350 349 28
163 172 184 152 131 162 150 125 229 270 285 232 277 282 291 314 333 345 13 12 352 348 356 6 22 27 24 26 32 28 13 5 2 5 11 16 23 6 347 340 331 344 345 343
189 203 163 151 161 171 159 151 157 249 272 246 263 267 281 304 315 328 345 16 88 12 352 346 354 358 4 6 2 357 351 341 334 334 340 349 354 352 334 331 328 333 337 334
196 215 185 186 173 175 172 183 213 218 232 242 238 259 289 289 289 309 311 341 15 85 28 334 338 338 337 339 345 329 326 323 316 312 318 330 333 325 308 308 312 326 336 342
201 201 206 192 193 175 173 210 216 223 230 244 198 228 259 284 295 294 306 324 332 348 19 360 328 332 334 327 326 320 313 306 300 298 305 310 309 313 319 319 316 323 320 325
209 211 195 201 205 186 180 216 209 166 85 62 48 234 263 278 276 289 295 310 320 319 326 347 305 314 323 321 317 314 313 309 305 298 302 308 312 314 319 319 314 315 321 323
219 221 212 207 214 210 205 209 141 113 350 321 204 254 242 259 277 293 300 307 306 305 311 316 322 278 303 310 313 309 306 303 302 307 308 305 306 308 312 310 307 312 318 322
218 220 220 219 212 216 207 220 172 201 220 202 211 226 241 266 280 294 289 298 301 294 299 305 312 315 299 304 299 300 293 298 303 297 295 300 300 299 291 291 304 317 308 313
223 217 221 235 217 217 208 199 195 204 196 206 272 270 257 267 279 283 293 305 308 286 285 294 307 309 313 308 289 295 305 290 283 293 281 284 285 289 277 288 269 324 328 309
213 220 197 239 242 221 219 196 194 205 185 202 280 230 237 253 268 278 290 295 309 312 296 295 291 281 270 288 276 291 297 279 268 288 265 275 317 307 283 346 285 274 322 310
207 216 196 201 236 257 254 234 211 208 185 210 243 252 248 258 269 272 287 296 302 302 303 286 293 308 289 298 305 317 292 276 261 244 248 313 294 323 289 320 315 291 314 309
203 211 206 193 206 234 249 240 221 232 197 206 231 248 259 253 259 272 287 286 289 288 288 293 293 301 307 307 317 317 313 310 259 311 323 331 319 309 305 313 316 311 310 306
220 206 214 198 190 224 241 251 246 232 219 214 225 244 265 272 264 265 277 288 282 284 300 300 300 303 305 311 309 302 333 335 324 306 302 312 304 301 301 313 310 302 303 305
238 222 215 212 198 201 239 254 253 255 233 237 217 248 262 264 263 264 274 271 269 278 297 305 306 305 305 304 310 308 311 312 318 308 301 298 302 307 305 305 306 309 309 308
230 234 221 224 207 202 210 225 256 261 255 225 227 242 253 263 268 267 269 273 277 284 296 302 306 307 308 305 306 305 310 317 310 297 301 303 304 303 305 307 305 302 301 299
232 234 228 230 217 206 208 210 216 254 250 243 220 237 254 257 262 269 276 281 285 293 291 294 301 304 305 305 307 308 308 304 302 304 302 302 301 302 302 300 300 298 297 301
225 230 235 236 229 217 223 208 206 255 272 240 214 230 246 254 258 265 270 278 283 290 290 297 300 299 302 304 304 304 304 304 302 300 301 302 302 301 298 297 296 298 301 304
217 227 238 243 241 236 223 211 200 214 237 229 223 227 238 239 246 251 263 280 285 286 290 295 297 296 295 293 292 292 293 294 295 295 294 294 293 293 294 296 299 301 304 303
225 232 240 239 244 237 229 213 203 213 229 238 242 241 244 249 255 263 272 275 280 285 291 292 290 287 285 285 285 286 287 288 289 290 290 291 293 296 298 302 303 304 304 302
217 226 233 240 240 239 236 218 210 221 224 235 244 251 258 265 267 272 272 273 279 286 291 287 286 288 287 287 289 290 291 293 293 293 297 300 302 302 303 304 304 303 301 303
210 219 215 218 222 231 220 226 212 220 228 236 240 243 247 251 258 264 271 269 282 290 289 291 293 293 294 295 297 299 299 298 299 302 303 302 302 305 306 305 304 303 306 308
210 220 227 229 229 225 227 235 231 226 233 245 248 255 265 260 260 262 270 271 282 289 290 291 294 295 297 300 302 300 298 299 302 303 304 306 307 306 306 305 303 304 305 307
212 217 225 233 242 248 249 243 238 234 235 241 249 253 258 271 269 271 272 278 287 290 293 296 296 299 300 301 299 297 300 302 303 305 307 306 306 306 305 303 304 305 307 307
218 220 221 224 231 234 236 236 240 240 242 243 252 257 262 271 267 268 277 285 290 294 297 298 300 300 299 299 298 300 302 304 306 306 305 304 304 304 304 305 306 307 307 306
202 219 226 221 234 239 230 239 240 241 248 251 257 262 265 266 272 277 282 287 290 293 295 297 297 297 297 299 301 303 305 306 304 303 301 302 301 304 305 306 307 307 308 309